Regional Weather Roundup
Issued by NWS

Home | Current Version | Previous Version | Graphics & Text | Print | Product List | Glossary Off
Versions: 1 2 3 4 5 6 7 8 9 10 11 12 13 14 15 16 17 18 19 20 21 22 23 24 25 26 27 28 29 30 31 32 33 34 35 36 37 38 39 40 41 42 43 44 45 46 47 48 49 50

000
ASUS43 KDMX 270007
RWRIA

WEATHER ROUNDUP FOR IOWA
NATIONAL WEATHER SERVICE DES MOINES IA
700 PM CDT TUE MAY 26 2015

NOTE: "FAIR" INDICATES FEW OR NO CLOUDS BELOW 12,000 FEET WITH NO
SIGNIFICANT WEATHER AND/OR OBSTRUCTIONS TO VISIBILITY.

* - THESE STATIONS ARE NOT NWS STATIONS...THUS NOT UNDER NWS
QUALITY CONTROL.  THEY ALSO DO NOT REPORT WEATHER SUCH
AS PRECIPITATION OR FOG.

IAZ001>003-012>014-020>022-031>034-043>046-270100-
   NORTHWEST IOWA

CITY           SKY/WX    TMP DP  RH WIND       PRES   REMARKS
CARROLL *      CLOUDY    63  61  94 NW16      29.82R
CHEROKEE *     CLOUDY    60  57  87 NW7       29.83S
DENISON *      CLOUDY    63  63 100 W7        29.82S
LE MARS *      PTSUNNY   64  55  72 N9G15     29.84S
ORANGE CITY *  PTSUNNY   59  54  82 CALM      29.84S
SHELDON *      CLOUDY    61  55  82 N9        29.82S
SIOUX CITY     MOSUNNY   68  55  63 NE8       29.83F
6HR MIN TEMP:  61; 6HR MAX TEMP:  68;

SPENCER        CLOUDY    60  56  86 NW7       29.82S
6HR MIN TEMP:  59; 6HR MAX TEMP:  61; 6HR PCP:  0.06;

STORM LAKE *   CLOUDY    59  57  94 NW10      29.84R
$$

IAZ055>058-069>071-079>083-090>094-270100-
   SOUTHWEST IOWA

CITY           SKY/WX    TMP DP  RH WIND       PRES   REMARKS
ATLANTIC *     CLOUDY    64  61  88 W12       29.85R
AUDUBON *      PTSUNNY   64  57  77 W7        29.84S
COUNCIL BLFS * MOSUNNY   66  63  88 W6        29.86F
CRESTON *      PTSUNNY   66  61  82 W14G22    29.84R
HARLAN  *      PTSUNNY   64  64 100 W9G15     29.88S
LAMONI         PTSUNNY   70  63  78 W16       29.83S
6HR MIN TEMP:  65; 6HR MAX TEMP:  76; 6HR PCP:  0.22;

RED OAK *      CLOUDY    66  61  82 NW9G15    29.86S
SHENANDOAH *   MOSUNNY   70  59  68 W12       29.86S
$$

IAZ047>049-059>061-072>074-084-270100-
   CENTRAL IOWA

CITY           SKY/WX    TMP DP  RH WIND       PRES   REMARKS
AMES           RAIN      64  60  87 W7        29.80R VSB 1/2
6HR MIN TEMP:  62; 6HR MAX TEMP:  71; 6HR PCP:  0.37;

ANKENY *       MOSUNNY   66  63  88 W12       29.79R
CHARITON *     MOSUNNY   68  61  77 W10       29.81R
DES MOINES     CLOUDY    69  61  75 W13       29.79S
6HR MIN TEMP:  65; 6HR MAX TEMP:  71; 6HR PCP:  0.11;

GRINNELL*      MOSUNNY   66  63  88 W8        29.79S
KNOXVILLE *    PTSUNNY   70  61  73 NW13G18   29.78S
MARSHALLTOWN   MOSUNNY   69  60  73 W12       29.77S
6HR MIN TEMP:  62; 6HR MAX TEMP:  71;

PELLA *        PTSUNNY   66  66 100 NW12      29.81S
PERRY *        PTSUNNY   65  62  90 W13       29.81S
$$

IAZ004>006-015-016-023>025-035-036-270100-
   NORTH CENTRAL IOWA

CITY           SKY/WX    TMP DP  RH WIND       PRES   REMARKS
ALGONA *       CLOUDY    61  59  94 N8        29.81R
CLARION *      DRIZZLE   63 N/A N/A NW10      29.80R
ESTHERVILLE    PTSUNNY   59  55  87 NW8       29.81S
6HR MIN TEMP:  58; 6HR MAX TEMP:  60; 6HR PCP:  0.10;

FORT DODGE *   CLOUDY    63  57  82 NW6       29.81S
MASON CITY     CLOUDY    63  58  83 NW12      29.80R
6HR MIN TEMP:  63; 6HR MAX TEMP:  66; 6HR PCP:  0.01;

FOREST CITY *  CLOUDY    59  59 100 NW7       29.79R
IOWA FALLS *     N/A     66  59  77 W8        29.79S
$$

IAZ007>011-017>019-026>030-037>042-050>054-066-270100-
   NORTHEAST IOWA

CITY           SKY/WX    TMP DP  RH WIND       PRES   REMARKS
CEDAR RAPIDS   PTSUNNY   67  64  90 SW9       29.77R
6HR MIN TEMP:  65; 6HR MAX TEMP:  72; 6HR PCP:  0.01;

CHARLES CITY * MOSUNNY   66  63  88 W9G18     29.78R
CLINTON *      SUNNY     72  61  68 W17       29.79S
DECORAH *      CLOUDY    64  61  88 VRB7G13   29.74R
DUBUQUE        CLOUDY    65  61  87 W12       29.77R
6HR MIN TEMP:  64; 6HR MAX TEMP:  71; 6HR PCP:  0.10;

MONTICELLO *   MOSUNNY   70  61  73 W14       29.77R
OELWEIN *      MOSUNNY   66  61  82 W15G22    29.78R
WATERLOO       SUNNY     68  59  73 W9        29.76S
6HR MIN TEMP:  62; 6HR MAX TEMP:  68; 6HR PCP:  0.10;

$$

IAZ064-065-067-068-078-270100-
   EAST CENTRAL IOWA

CITY           SKY/WX    TMP DP  RH WIND       PRES   REMARKS
DAVENPORT      MOSUNNY   73  60  63 W15       29.78F
6HR MIN TEMP:  70; 6HR MAX TEMP:  76;

IOWA CITY      PTSUNNY   71  60  68 SW12      29.79S
6HR MIN TEMP:  67; 6HR MAX TEMP:  73;

MT. PLEASANT * PTSUNNY   71  62  73 SW12      29.80R
MUSCATINE *    MOSUNNY   72  63  73 W7        29.79S
QUAD CITIES    MOSUNNY   73  59  61 SW14      29.78S
6HR MIN TEMP:  73; 6HR MAX TEMP:  77; 6HR PCP: TRACE;

$$

IAZ062-063-075>077-085>089-095>099-270100-
   SOUTHEAST IOWA

CITY           SKY/WX    TMP DP  RH WIND       PRES   REMARKS
BURLINGTON     MOSUNNY   74  63  68 SW10      29.80S
6HR MIN TEMP:  67; 6HR MAX TEMP:  75; 6HR PCP:  0.07;

FAIRFIELD *    MOSUNNY   70  63  78 W6        29.80F
FORT MADISON * PTSUNNY   73  63  68 SW6       29.81S
KEOKUK *       MOSUNNY   75  61  60 SW14      29.80S
OSKALOOSA *      N/A     68  62  79 SW10      29.79S
CENTERVILLE *    N/A     68  68 100 W9        29.83S
OTTUMWA        MOSUNNY   67  63  87 SW9       29.79S
6HR MIN TEMP:  67; 6HR MAX TEMP:  73; 6HR PCP:  0.03;

WASHINGTON *   RAIN      64  63  94 SW12G28   29.81R VSB 3/4
$$

ABBREVIATIONS USED IN REMARKS
   TC - TEMPERATURES IN CELSIUS
  WCI - WIND CHILL INDEX
   HX - HEAT INDEX
  VSB - VISIBILITY
$$




USA.gov is the U.S. government's official web portal to all federal, state and local government web resources and services.